Regional Weather Roundup
Issued by NWS

Home | Current Version | Previous Version | Text Only | Print | Product List | Glossary Off
Versions: 1 2 3 4 5 6 7 8 9 10 11 12 13 14 15 16 17 18 19 20 21 22 23 24 25 26 27 28 29 30 31 32 33 34 35 36 37 38 39 40 41 42 43 44 45 46 47 48 49 50

000
ASUS43 KDTX 251101
RWRMI
MICHIGAN HOURLY REGIONAL WEATHER ROUNDUP
NATIONAL WEATHER SERVICE DETROIT/PONTIAC MI
600 AM EST SUN FEB 25 2018

NOTE: "FAIR" INDICATES FEW OR NO CLOUDS BELOW 12,000 FEET WITH NO
SIGNIFICANT WEATHER AND/OR OBSTRUCTION TO VISIBILITY.

MIZ047>049-052>055-059>063-066>070-074>076-081>083-251200-
SOUTHEAST LOWER MICHIGAN

CITY           SKY/WX    TMP DP  RH WIND       PRES   REMARKS
ADRIAN         FAIR      48  39  71 W24G40    29.60R
ALMA           CLOUDY    43  41  93 SW29G41   29.48R
ANN ARBOR      FAIR      46  45  96 S13       29.53R
BAD AXE        LGT SNOW  41  41 100 S16       29.41S
CARO           CLOUDY    46  45  97 S18G29    29.42R
DETROIT CITY   CLOUDY    49  47  93 SW18G30   29.51R
DETROIT        MOCLDY    48  46  93 SW20      29.54R
FLINT          CLOUDY    47  45  93 SW16G25   29.47R
GROSSE ILE     MOCLDY    46  46  99 SW10G17   29.53R
HILLSDALE      CLOUDY    43  36  75 W23G39    29.61R
HOWELL         CLOUDY    47  46  95 SW14G24   29.50R

CITY           SKY/WX    TMP DP  RH WIND       PRES   REMARKS
JACKSON        CLOUDY    44  40  85 W25G33    29.58R
LAMBERTVILLE   MOCLDY    50  43  78 SW21G36   29.60R
LANSING        CLOUDY    42  38  85 W35G48    29.55R
LAPEER         CLOUDY    45  44  97 SW16G22   29.46R
MASON          CLOUDY    46  38  73 W18G33    29.55R
MT. CLEMENS    CLOUDY    39  39 100 S8        29.49R WCI  34
PONTIAC        CLOUDY    46  46 100 SW16G23   29.48R
PORT HOPE        N/A     40  39  97 S16G24    29.39F WCI  31
PORT HURON     DRIZZLE   46  45  93 S12G18    29.49R
TRI CITIES     CLOUDY    47  44  90 SW26G36   29.41R
MIDLAND        CLOUDY    45  44  99 SW16G23   29.40R
TROY           CLOUDY    46  45  97 SW12G17   29.52R
SAGINAW HB     CLOUDY    45  43  93 SW21G28   29.42R FOG
$$
MIZ043>046-050>051-056>058-064>065-071>073-077>080-251200-
SOUTHWEST LOWER MICHIGAN

CITY           SKY/WX    TMP DP  RH WIND       PRES   REMARKS
BATTLE CREEK     N/A    N/A N/A N/A MISG      29.62R
BENTON HARBOR  CLOUDY    36  28  73 W24G38    29.69R WCI  24
BIG RAPIDS     CLOUDY    37  33  85 W25G36    29.44R WCI  26
COLDWATER      CLOUDY    41  37  88 W18G32    29.65R
FREMONT        CLOUDY    36  30  79 SW25G36   29.53R WCI  23
HOLLAND        CLOUDY    36  29  75 W24G37    29.62R WCI  24
GRAND RAPIDS   CLOUDY    37  35  92 W26G47    29.58R WCI  25
IONIA          CLOUDY    38  37  93 W23G40    29.54R WCI  28
KALAMAZOO      CLOUDY    38  32  79 W17G30    29.65R WCI  28
LUDINGTON      CLOUDY    36  33  88 W21G33    29.47R WCI  25
MOUNT PLEASANT CLOUDY    42  40  93 SW24G41   29.43R
MUSKEGON       CLOUDY    36  28  73 SW23G33   29.58R WCI  24
SOUTH HAVEN    CLOUDY    36  29  78 W15G29    29.67R WCI  26
$$
MIZ016>042-251200-
NORTHERN LOWER MICHIGAN

CITY           SKY/WX    TMP DP  RH WIND       PRES   REMARKS
ALPENA         LGT RAIN  35  35 100 S12       29.35F FOG     WCI  27
BEAVER ISLAND  RAIN      35  34  96 S12G20    29.28F WCI  27
BELLAIRE       CLOUDY    38  37  97 S10G16    29.31S WCI  30
CADILLAC       LGT RAIN  37  36  99 SW29G36   29.36R WCI  24
CHARLEVOIX     CLOUDY    37  37 100 S7        29.31F FOG     WCI  32
FRANKFORT      CLOUDY    38  37  94 SW16G25   29.39R WCI  29
GAYLORD        CLOUDY    34  34 100 S15       29.29F WCI  24
GRAYLING       CLOUDY    35  35  99 SW12      29.32R WCI  27
HARBOR SPRINGS RAIN      34  33  99 CALM      29.29F
HOUGHTON LAKE  CLOUDY    36  35  96 S15       29.35S FOG     WCI  27
MANISTEE       CLOUDY    37  32  82 W20G32    29.43R WCI  27
OSCODA         MIX PCPN  37  36  96 S13G18    29.36F WCI  28
PELLSTON       LGT SNOW  34  34 100 SE9       29.29F FOG     WCI  27
ROGERS CITY    RAIN      34  33  93 SE20G29   29.33F WCI  23
TRAVERSE CITY  LGT RAIN  41  38  89 SW15G25   29.32R FOG
$$
MIZ007>008-015-251200-
EASTERN UPPER MICHIGAN

CITY           SKY/WX    TMP DP  RH WIND       PRES   REMARKS
KINROSS        LGT SNOW  32  31  96 SE26G37   29.31F VSB 1   WCI  18
MACKINAC ISLAN LGT SNOW  32  32 100 SE8G21    29.29F WCI  25
NEWBERRY       LGT SNOW  32  31  97 SE15G22   29.24F VSB 1   WCI  21
S. S. MARIE    LGT SNOW  34  31  88 SE15G22   29.31F VSB 1   WCI  24
MUNISING         N/A     34  33  96 S9        29.22F WCI  27
$$
MIZ004>006-011>014-085-251200-
CENTRAL UPPER MICHIGAN

CITY           SKY/WX    TMP DP  RH WIND       PRES   REMARKS
MANISTIQUE     LGT SNOW  32  30  94 SE8       29.25F WCI  25
ESCANABA       CLOUDY    32  31  96 SW10      29.26F WCI  24
MENOMINEE      CLOUDY    33  32  96 W12G20    29.33R WCI  24
SAWYER-GWINN   CLOUDY    29  28  94 S9        29.21F WCI  21
$$
MIZ001>003-009>011-084-251200-
WESTERN UPPER MICHIGAN

CITY           SKY/WX    TMP DP  RH WIND       PRES   REMARKS
IRON MOUNTAIN  CLOUDY    30  27  88 S6        29.23S WCI  24
HOUGHTON       LGT SNOW  29  25  85 SE6       29.18F FOG     WCI  23
COPPER HARBOR    N/A     31  28  89 S6        29.19F WCI  25
IRONWOOD       LGT SNOW  28  25  88 W15       29.26R FOG     WCI  16
$$

ABBREVIATIONS USED IN REMARKS
   TC - TEMPERATURE IN CELSIUS
  WCI - WIND CHILL INDEX
   HX - HEAT INDEX
  VSB - VISIBILITY





USA.gov is the U.S. government's official web portal to all federal, state and local government web resources and services.